User: anonymous   Login
Location: Caltech
(34.1382°N, 118.1253°W)
Time: 01:07:47
(UTC-08:00)
Language:

Uribyol 2 - Orbit

View from above orbital plane
View from above orbital plane
View from above satellite
View from above satellite

Ground track
Ground track

The orbit data is extracted from the following two-line orbital elements,

1 22828U 93061F   17327.89092147  .00000021  00000-0  25519-4 0  9990
2 22828  98.8202 294.3449 0009793 177.4733 182.6500 14.30656004228775
Epoch (UTC): 23 November 2017 21:22:55
Eccentricity: 0.0009793
inclination: 98.8202°
perigee height: 782 km
apogee height: 796 km
right ascension of ascending node: 294.3449°
argument of perigee: 177.4733°
revolutions per day: 14.30656004
mean anomaly at epoch: 182.6500°
orbit number at epoch: 22877

The dashed part of the orbit path shows where the satellite is in the earth's shadow,  

DLR